Вернуться в каталог

COSMOS 1867 COOLANT

АктивенLEO
NORAD 39656·DEBRIS·🇷🇺 Russia

Запущен Jul 10, 1987 с Baikonur Cosmodrome

Loading…

Ближайшие Пролёты (ближайшие 24 часа)

TLE

СвежийSource: Space-Track

Эпоха: Sep 14, 2026, 05:26 UTC

1 39656U 87060T   26257.22649060  .00000118  00000-0  78179-4 0  9997
2 39656  65.0057 118.2736 0018980 280.5544  79.3404 14.33960014649441

Отслеживайте COSMOS 1867 COOLANT в реальном времени с AllMySat

Download on the App Store